Location: *
(45.1961°N, 1.9694°E)
Time: 08:13:35
(UTC+00:00)

Nadezhda 1 Rocket - Pass Details

Date: 25 August 2019
Orbit: 941 x 1006 km, 83.0° (Epoch: 18 September)

Event Time Altitude Azimuth Distance (km) Brightness Sun altitude
Exits shadow 21:59:10 79° 196° (SSW) 981 3.8 -28.5°
Maximum altitude 21:59:36 88° 279° (W) 965 3.8 -28.5°
Drops below altitude 10° 22:05:45 10° 8° (N) 2,682 6.9 -29.1°
Sets 22:08:14 0° 9° (N) 3,625 7.7 -29.3°
